No particular awareness of the weather is required.    There are no Weather-warnings


Meteo18 Weather Cam more information Meteo18 Weather Cam


Thunder radar more information blitzortung!


Rain radar more information rain snow radar


Visit our other weather sites:

Template documentation
and downloads

And another site



Weather Underground History page Text

Daily Summary for January 12, 2017 Units:  English    Metric   Both
« Previous Day
Next Day »
Daily Weekly Monthly Yearly Custom
  High: Low: Average:
Temperature: TemperatureC °F 4.7 °F 6.6 °F
Dew Point: DewpointC °F 1.6 °F 5.2 °F
Humidity: Humidity % 72 % 91 %
Wind Speed: WindSpeedKMH mph 0.0 mph 11.3 mph
Wind Gust: WindSpeedGustKMH mph - -
Wind:- - SW
Pressure: PressurehPa in 1000.2 in -
Precipitation: 5.3 in    
Historical Graphs
 
 
Tabular Data for January 12, 2017
Time Temperature Dew Point Pressure Wind Wind Speed Wind Gust Humidity Rainfall Rate (Hourly)
TemperatureC °F DewpointC °F PressurehPa in Calm     Humidity % HourlyPrecipMM in
00:02 7.7 °F 5.3 °F 1021.2 in WNW 8.0 mph 9.7 mph 85 % 0.0 in
00:07 7.7 °F 5.2 °F 1021.2 in WNW 8.0 mph 14.5 mph 84 % 0.0 in
00:12 7.7 °F 5.2 °F 1021.2 in West 4.8 mph 14.5 mph 84 % 0.0 in
00:17 7.7 °F 5.2 °F 1021.2 in West 4.8 mph 14.5 mph 84 % 0.0 in
00:22 7.7 °F 5.2 °F 1021.2 in West 9.7 mph 12.9 mph 84 % 0.0 in
00:27 7.7 °F 5.2 °F 1020.9 in WSW 3.2 mph 9.7 mph 84 % 0.0 in
00:32 7.6 °F 5.1 °F 1021.2 in WSW 6.4 mph 11.3 mph 84 % 0.0 in
00:37 7.6 °F 5.2 °F 1021.2 in WSW 6.4 mph 11.3 mph 85 % 0.0 in
00:42 7.6 °F 5.2 °F 1021.6 in WSW 4.8 mph 9.7 mph 85 % 0.0 in
00:47 7.5 °F 5.3 °F 1021.6 in SW 4.8 mph 9.7 mph 86 % 0.0 in
00:52 7.5 °F 5.3 °F 1021.2 in WSW 11.3 mph 11.3 mph 86 % 0.0 in
01:02 7.5 °F 5.3 °F 1020.9 in SW 3.2 mph 11.3 mph 86 % 0.0 in
01:12 7.4 °F 5.4 °F 1020.9 in SW 3.2 mph 11.3 mph 87 % 0.0 in
01:17 7.3 °F 5.3 °F 1021.2 in West 3.2 mph 11.3 mph 87 % 0.0 in
01:22 7.3 °F 5.4 °F 1020.9 in WSW 8.0 mph 11.3 mph 88 % 0.0 in
01:27 7.3 °F 5.4 °F 1020.9 in WSW 9.7 mph 11.3 mph 88 % 0.0 in
01:32 7.2 °F 5.3 °F 1020.9 in SW 4.8 mph 11.3 mph 88 % 0.0 in
01:37 7.2 °F 5.3 °F 1020.9 in WSW 8.0 mph 11.3 mph 88 % 0.0 in
01:42 7.1 °F 5.4 °F 1020.9 in West 4.8 mph 11.3 mph 89 % 0.0 in
01:52 7.1 °F 5.4 °F 1020.9 in WSW 3.2 mph 11.3 mph 89 % 0.0 in
01:57 7.0 °F 5.3 °F 1021.2 in West 4.8 mph 8.0 mph 89 % 0.0 in
02:02 6.9 °F 5.4 °F 1021.6 in WNW 6.4 mph 8.0 mph 90 % 0.0 in
02:12 6.9 °F 5.4 °F 1021.2 in WSW 8.0 mph 9.7 mph 90 % 0.0 in
02:17 6.9 °F 5.5 °F 1021.2 in West 4.8 mph 9.7 mph 91 % 0.0 in
02:22 6.8 °F 5.4 °F 1021.2 in West 3.2 mph 9.7 mph 91 % 0.0 in
02:27 6.8 °F 5.6 °F 1021.6 in West 6.4 mph 9.7 mph 92 % 0.0 in
02:32 6.8 °F 5.6 °F 1021.2 in West 4.8 mph 12.9 mph 92 % 0.0 in
02:37 6.8 °F 5.6 °F 1021.2 in West 4.8 mph 12.9 mph 92 % 0.0 in
02:42 6.8 °F 5.6 °F 1021.2 in West 6.4 mph 12.9 mph 92 % 0.0 in
02:52 6.8 °F 5.6 °F 1021.2 in WSW 4.8 mph 11.3 mph 92 % 0.0 in
02:57 6.8 °F 5.6 °F 1021.2 in West 3.2 mph 12.9 mph 92 % 0.0 in
03:02 6.8 °F 5.6 °F 1021.2 in West 4.8 mph 12.9 mph 92 % 0.0 in
03:07 6.8 °F 5.4 °F 1021.2 in WSW 4.8 mph 9.7 mph 91 % 0.0 in
03:12 6.8 °F 5.4 °F 1021.2 in West 6.4 mph 9.7 mph 91 % 0.0 in
03:17 6.8 °F 5.4 °F 1021.6 in WSW 6.4 mph 9.7 mph 91 % 0.0 in
03:22 6.8 °F 5.4 °F 1021.2 in West 6.4 mph 9.7 mph 91 % 0.0 in
03:32 6.7 °F 5.3 °F 1021.2 in WSW 6.4 mph 12.9 mph 91 % 0.0 in
03:37 6.7 °F 5.3 °F 1021.2 in West 6.4 mph 9.7 mph 91 % 0.0 in
03:42 6.7 °F 5.3 °F 1021.2 in WSW 6.4 mph 9.7 mph 91 % 0.0 in
03:47 6.6 °F 5.2 °F 1021.2 in WSW 3.2 mph 9.7 mph 91 % 0.0 in
03:52 6.6 °F 5.2 °F 1021.2 in WNW 1.6 mph 9.7 mph 91 % 0.0 in
03:57 6.6 °F 5.4 °F 1021.2 in WSW 3.2 mph 8.0 mph 92 % 0.0 in
04:02 6.6 °F 5.2 °F 1021.2 in SW 3.2 mph 8.0 mph 91 % 0.0 in
04:12 6.5 °F 5.3 °F 1020.9 in WSW 4.8 mph 8.0 mph 92 % 0.0 in
04:17 6.4 °F 5.2 °F 1020.9 in WSW 4.8 mph 9.7 mph 92 % 0.0 in
04:22 6.3 °F 5.1 °F 1020.9 in SW 3.2 mph 9.7 mph 92 % 0.0 in
04:27 6.3 °F 5.1 °F 1020.9 in SW 3.2 mph 9.7 mph 92 % 0.0 in
04:32 6.2 °F 5.0 °F 1020.9 in SW 1.6 mph 9.7 mph 92 % 0.0 in
04:37 6.2 °F 5.2 °F 1020.9 in SW 1.6 mph 6.4 mph 93 % 0.0 in
04:42 6.2 °F 5.2 °F 1020.9 in WSW 1.6 mph 6.4 mph 93 % 0.0 in
04:47 6.1 °F 5.1 °F 1020.9 in SW 3.2 mph 4.8 mph 93 % 0.0 in
04:52 6.1 °F 5.1 °F 1020.5 in SW 3.2 mph 4.8 mph 93 % 0.0 in
04:57 6.0 °F 5.0 °F 1020.5 in Calm   4.8 mph 93 % 0.0 in
05:02 5.9 °F 4.9 °F 1020.5 in West 3.2 mph 4.8 mph 93 % 0.0 in
05:07 5.9 °F 4.9 °F 1020.5 in WSW 3.2 mph 6.4 mph 93 % 0.0 in
05:12 5.9 °F 4.9 °F 1020.5 in West 1.6 mph 6.4 mph 93 % 0.0 in
05:17 5.9 °F 4.9 °F 1020.9 in WSW 1.6 mph 6.4 mph 93 % 0.0 in
05:22 5.9 °F 4.9 °F 1020.5 in West 3.2 mph 4.8 mph 93 % 0.0 in
05:27 5.8 °F 4.8 °F 1020.5 in West 1.6 mph 6.4 mph 93 % 0.0 in
05:32 5.8 °F 4.8 °F 1020.9 in WSW 3.2 mph 6.4 mph 93 % 0.0 in
05:37 5.8 °F 4.8 °F 1020.9 in West 1.6 mph 6.4 mph 93 % 0.0 in
05:42 5.8 °F 4.8 °F 1020.9 in West 1.6 mph 4.8 mph 93 % 0.0 in
05:52 5.8 °F 4.8 °F 1020.5 in WNW 3.2 mph 6.4 mph 93 % 0.0 in
05:57 5.8 °F 4.8 °F 1020.5 in WNW 1.6 mph 4.8 mph 93 % 0.0 in
06:02 5.8 °F 4.8 °F 1020.2 in Calm   3.2 mph 93 % 0.0 in
06:12 5.8 °F 4.8 °F 1020.2 in Calm   3.2 mph 93 % 0.0 in
06:17 5.8 °F 4.8 °F 1019.9 in Calm   3.2 mph 93 % 0.0 in
06:22 5.8 °F 4.8 °F 1020.2 in SW 1.6 mph 1.6 mph 93 % 0.0 in
06:27 5.6 °F 4.6 °F 1020.2 in SSW 1.6 mph 1.6 mph 93 % 0.0 in
06:32 5.5 °F 4.6 °F 1020.2 in SW 1.6 mph 3.2 mph 94 % 0.0 in
06:37 5.5 °F 4.6 °F 1020.2 in SSW 1.6 mph 3.2 mph 94 % 0.0 in
06:42 5.5 °F 4.6 °F 1020.2 in SW 1.6 mph 4.8 mph 94 % 0.0 in
06:47 5.4 °F 4.5 °F 1019.9 in SSW 1.6 mph 4.8 mph 94 % 0.0 in
06:52 5.3 °F 4.4 °F 1020.2 in SW 1.6 mph 3.2 mph 94 % 0.0 in
06:57 5.3 °F 4.6 °F 1019.9 in Calm   3.2 mph 95 % 0.0 in
07:02 5.3 °F 4.6 °F 1019.9 in Calm   4.8 mph 95 % 0.0 in
07:07 5.3 °F 4.6 °F 1019.9 in Calm   4.8 mph 95 % 0.0 in
07:12 5.4 °F 4.7 °F 1019.9 in Calm   4.8 mph 95 % 0.0 in
07:17 5.4 °F 4.7 °F 1020.2 in Calm   1.6 mph 95 % 0.0 in
07:22 5.4 °F 4.5 °F 1019.9 in Calm   1.6 mph 94 % 0.0 in
07:27 5.3 °F 4.4 °F 1020.2 in Calm   1.6 mph 94 % 0.0 in
07:32 5.2 °F 4.3 °F 1020.2 in Calm   1.6 mph 94 % 0.0 in
07:37 5.1 °F 4.2 °F 1019.9 in Calm     94 % 0.0 in
07:42 4.9 °F 4.2 °F 1019.9 in Calm     95 % 0.0 in
07:47 4.9 °F 4.2 °F 1019.9 in SSW 1.6 mph   95 % 0.0 in
07:52 4.8 °F 4.1 °F 1019.5 in SSW 1.6 mph 1.6 mph 95 % 0.0 in
07:57 4.8 °F 4.2 °F 1019.5 in SSW 1.6 mph 3.2 mph 96 % 0.0 in
08:02 4.7 °F 4.1 °F 1019.5 in SW 4.8 mph 4.8 mph 96 % 0.0 in
08:07 4.8 °F 4.2 °F 1019.5 in SW 4.8 mph 6.4 mph 96 % 0.0 in
08:12 4.9 °F 4.5 °F 1019.9 in SW 4.8 mph 8.0 mph 97 % 0.0 in
08:17 5.0 °F 4.4 °F 1019.5 in SW 3.2 mph 8.0 mph 96 % 0.0 in
08:22 5.1 °F 4.5 °F 1019.5 in West 1.6 mph 9.7 mph 96 % 0.0 in
08:27 5.1 °F 4.5 °F 1019.5 in SW 1.6 mph 9.7 mph 96 % 0.0 in
08:32 5.1 °F 4.5 °F 1019.5 in SW 1.6 mph 9.7 mph 96 % 0.0 in
08:37 5.1 °F 4.5 °F 1019.5 in SW 8.0 mph 9.7 mph 96 % 0.0 in
08:42 5.1 °F 4.5 °F 1019.5 in SW 3.2 mph 8.0 mph 96 % 0.0 in
08:52 5.1 °F 4.5 °F 1019.2 in West 4.8 mph 9.7 mph 96 % 0.0 in
08:57 5.1 °F 4.5 °F 1019.2 in SW 6.4 mph 9.7 mph 96 % 0.0 in
09:02 5.1 °F 4.5 °F 1019.5 in SW 8.0 mph 11.3 mph 96 % 0.0 in
09:07 5.1 °F 4.5 °F 1019.5 in SW 8.0 mph 12.9 mph 96 % 0.0 in
09:12 5.1 °F 4.4 °F 1019.5 in SW 9.7 mph 12.9 mph 95 % 0.0 in
09:17 5.0 °F 4.3 °F 1019.5 in SW 6.4 mph 12.9 mph 95 % 0.0 in
09:22 5.0 °F 4.4 °F 1019.5 in SW 6.4 mph 12.9 mph 96 % 0.0 in
09:27 4.9 °F 4.3 °F 1019.5 in SW 4.8 mph 12.9 mph 96 % 0.0 in
09:32 4.9 °F 4.3 °F 1019.5 in SSW 4.8 mph 11.3 mph 96 % 0.0 in
09:37 4.9 °F 4.3 °F 1019.9 in WSW 3.2 mph 9.7 mph 96 % 0.0 in
09:42 4.9 °F 4.3 °F 1019.5 in SW 6.4 mph 9.7 mph 96 % 0.0 in
09:47 5.0 °F 4.4 °F 1019.5 in WSW 6.4 mph 9.7 mph 96 % 0.0 in
09:52 5.1 °F 4.5 °F 1019.5 in WSW 9.7 mph 9.7 mph 96 % 0.0 in
09:57 5.1 °F 4.5 °F 1019.5 in SW 3.2 mph 11.3 mph 96 % 0.0 in
10:02 5.1 °F 4.4 °F 1019.5 in WSW 3.2 mph 11.3 mph 95 % 0.0 in
10:12 5.2 °F 4.5 °F 1019.2 in SW 8.0 mph 12.9 mph 95 % 0.0 in
10:22 5.2 °F 4.6 °F 1018.8 in SSW 3.2 mph 11.3 mph 96 % 0.0 in
10:27 5.2 °F 4.6 °F 1018.8 in SW 8.0 mph 11.3 mph 96 % 0.0 in
10:32 5.2 °F 4.6 °F 1018.8 in SW 6.4 mph 11.3 mph 96 % 0.0 in
10:37 5.2 °F 4.6 °F 1018.8 in SW 9.7 mph 9.7 mph 96 % 0.0 in
10:42 5.3 °F 4.7 °F 1018.8 in SW 6.4 mph 11.3 mph 96 % 0.0 in
10:47 5.4 °F 4.8 °F 1018.8 in SW 6.4 mph 11.3 mph 96 % 0.0 in
10:52 5.4 °F 4.8 °F 1018.8 in SW 6.4 mph 11.3 mph 96 % 0.0 in
10:57 5.6 °F 4.9 °F 1018.8 in SW 6.4 mph 11.3 mph 95 % 0.0 in
11:02 5.6 °F 4.9 °F 1018.8 in SW 4.8 mph 11.3 mph 95 % 0.0 in
11:12 5.8 °F 5.1 °F 1018.2 in SSW 6.4 mph 9.7 mph 95 % 0.0 in
11:17 5.9 °F 5.2 °F 1018.2 in SSW 3.2 mph 9.7 mph 95 % 0.0 in
11:27 6.1 °F 5.4 °F 1018.2 in SW 4.8 mph 9.7 mph 95 % 0.0 in
11:32 6.2 °F 5.5 °F 1017.8 in SSW 1.6 mph 8.0 mph 95 % 0.0 in
11:37 6.4 °F 5.7 °F 1017.8 in SSW 3.2 mph 8.0 mph 95 % 0.0 in
11:42 6.5 °F 5.6 °F 1017.8 in SW 4.8 mph 8.0 mph 94 % 0.0 in
11:47 6.6 °F 5.5 °F 1017.5 in SSW 3.2 mph 8.0 mph 93 % 0.0 in
11:52 6.6 °F 5.5 °F 1017.5 in SSW 1.6 mph 8.0 mph 93 % 0.0 in
11:57 6.8 °F 5.7 °F 1017.2 in SSW 4.8 mph 9.7 mph 93 % 0.0 in
12:02 6.8 °F 5.6 °F 1017.2 in South 4.8 mph 11.3 mph 92 % 0.0 in
12:07 6.9 °F 5.5 °F 1017.2 in SSW 8.0 mph 11.3 mph 91 % 0.0 in
12:12 6.9 °F 5.5 °F 1016.8 in SSW 6.4 mph 12.9 mph 91 % 0.0 in
12:17 7.0 °F 5.6 °F 1016.8 in SSW 9.7 mph 12.9 mph 91 % 0.0 in
12:27 7.1 °F 5.7 °F 1016.5 in SW 16.1 mph 16.1 mph 91 % 0.0 in
12:32 7.1 °F 5.7 °F 1016.1 in SSW 8.0 mph 12.9 mph 91 % 0.0 in
12:37 7.1 °F 5.6 °F 1016.1 in SW 12.9 mph 16.1 mph 90 % 0.0 in
12:42 7.1 °F 5.6 °F 1016.1 in SSW 12.9 mph 19.3 mph 90 % 0.0 in
12:47 7.1 °F 5.6 °F 1015.8 in SW 9.7 mph 19.3 mph 90 % 0.0 in
12:52 7.1 °F 5.7 °F 1015.8 in SW 9.7 mph 19.3 mph 91 % 0.0 in
12:57 7.1 °F 5.7 °F 1015.5 in SSW 6.4 mph 19.3 mph 91 % 0.0 in
13:02 7.0 °F 5.8 °F 1015.5 in SSW 6.4 mph 19.3 mph 92 % 0.0 in
13:12 6.8 °F 5.7 °F 1014.8 in SW 9.7 mph 17.7 mph 93 % 0.3 in
13:17 6.8 °F 5.7 °F 1014.8 in SSW 8.0 mph 14.5 mph 93 % 0.3 in
13:22 6.7 °F 5.6 °F 1014.4 in SW 11.3 mph 19.3 mph 93 % 0.3 in
13:27 6.6 °F 5.7 °F 1014.4 in SSW 11.3 mph 20.9 mph 94 % 0.5 in
13:32 6.6 °F 5.7 °F 1014.4 in SW 17.7 mph 20.9 mph 94 % 0.5 in
13:37 6.5 °F 5.8 °F 1014.1 in SW 11.3 mph 20.9 mph 95 % 0.5 in
13:42 6.5 °F 5.8 °F 1013.8 in SSW 11.3 mph 19.3 mph 95 % 0.5 in
13:47 6.5 °F 5.8 °F 1013.8 in SSW 6.4 mph 19.3 mph 95 % 0.5 in
13:52 6.5 °F 5.9 °F 1013.8 in SW 16.1 mph 16.1 mph 96 % 0.8 in
13:57 6.4 °F 5.8 °F 1013.4 in SW 14.5 mph 22.5 mph 96 % 1.0 in
14:02 6.5 °F 5.9 °F 1013.1 in SW 16.1 mph 22.5 mph 96 % 1.0 in
14:12 6.5 °F 5.9 °F 1012.8 in SW 11.3 mph 20.9 mph 96 % 1.0 in
14:17 6.6 °F 6.0 °F 1012.8 in SSW 8.0 mph 19.3 mph 96 % 1.0 in
14:22 6.6 °F 6.0 °F 1012.4 in SSW 9.7 mph 17.7 mph 96 % 1.0 in
14:27 6.6 °F 6.0 °F 1012.4 in SSW 9.7 mph 17.7 mph 96 % 1.0 in
14:32 6.7 °F 6.1 °F 1012.1 in SSW 11.3 mph 17.7 mph 96 % 1.0 in
15:23 6.8 °F 6.2 °F 1010.4 in South 12.9 mph 17.7 mph 96 % 0.8 in
15:32 6.9 °F 6.3 °F 1009.7 in SSW 11.3 mph 20.9 mph 96 % 0.8 in
15:37 6.9 °F 6.3 °F 1009.7 in SW 8.0 mph 20.9 mph 96 % 1.0 in
15:42 6.9 °F 6.3 °F 1009.4 in SSW 16.1 mph 22.5 mph 96 % 0.8 in
15:52 6.9 °F 6.3 °F 1009.0 in South 12.9 mph 22.5 mph 96 % 0.8 in
15:57 6.9 °F 6.3 °F 1009.0 in SSW 12.9 mph 24.1 mph 96 % 0.8 in
16:02 7.0 °F 6.4 °F 1008.7 in SSW 9.7 mph 24.1 mph 96 % 0.8 in
16:12 7.0 °F 6.4 °F 1008.4 in SSW 20.9 mph 27.4 mph 96 % 0.5 in
16:17 7.0 °F 6.4 °F 1008.4 in SW 11.3 mph 27.4 mph 96 % 0.5 in
16:22 7.1 °F 6.5 °F 1008.0 in SSW 9.7 mph 27.4 mph 96 % 0.5 in
16:27 7.0 °F 6.4 °F 1008.0 in South 17.7 mph 25.7 mph 96 % 0.5 in
16:32 7.1 °F 6.5 °F 1008.0 in SSW 17.7 mph 25.7 mph 96 % 0.5 in
16:42 7.1 °F 6.4 °F 1007.3 in South 20.9 mph 29.0 mph 95 % 0.5 in
16:52 7.1 °F 6.5 °F 1007.3 in South 19.3 mph 29.0 mph 96 % 0.8 in
16:57 7.1 °F 6.5 °F 1007.0 in SSW 19.3 mph 29.0 mph 96 % 0.8 in
17:02 7.1 °F 6.5 °F 1006.7 in South 12.9 mph 29.0 mph 96 % 0.5 in
17:12 7.1 °F 6.5 °F 1006.7 in South 12.9 mph 27.4 mph 96 % 0.8 in
17:17 7.2 °F 6.5 °F 1006.3 in SSW 16.1 mph 27.4 mph 95 % 0.8 in
17:22 7.2 °F 6.5 °F 1006.0 in South 16.1 mph 32.2 mph 95 % 1.0 in
17:32 7.3 °F 6.6 °F 1005.6 in SSW 25.7 mph 35.4 mph 95 % 1.0 in
17:37 7.3 °F 6.6 °F 1005.3 in SSW 19.3 mph 37.0 mph 95 % 0.8 in
17:42 7.3 °F 6.6 °F 1005.0 in South 22.5 mph 37.0 mph 95 % 0.5 in
17:47 7.2 °F 6.5 °F 1005.0 in SSW 25.7 mph 33.8 mph 95 % 0.5 in
17:52 7.2 °F 6.5 °F 1005.0 in SSW 14.5 mph 33.8 mph 95 % 0.5 in
17:57 7.1 °F 6.4 °F 1004.6 in South 19.3 mph 33.8 mph 95 % 0.5 in
18:02 7.1 °F 6.5 °F 1004.3 in SSW 17.7 mph 32.2 mph 96 % 0.8 in
18:12 7.2 °F 6.6 °F 1004.3 in SSW 22.5 mph 38.6 mph 96 % 0.8 in
18:17 7.2 °F 6.5 °F 1003.9 in SSW 17.7 mph 38.6 mph 95 % 0.8 in
18:22 7.2 °F 6.5 °F 1003.6 in SSW 30.6 mph 33.8 mph 95 % 0.8 in
18:27 7.2 °F 6.5 °F 1003.6 in South 11.3 mph 35.4 mph 95 % 1.0 in
18:32 7.2 °F 6.5 °F 1003.3 in SW 22.5 mph 35.4 mph 95 % 1.0 in
18:37 7.2 °F 6.6 °F 1003.3 in SSW 27.4 mph 35.4 mph 96 % 1.3 in
18:42 7.2 °F 6.5 °F 1002.9 in South 22.5 mph 33.8 mph 95 % 1.5 in
18:47 7.2 °F 6.5 °F 1002.9 in SW 17.7 mph 33.8 mph 95 % 1.5 in
18:52 7.2 °F 6.5 °F 1002.9 in SW 22.5 mph 33.8 mph 95 % 1.3 in
18:57 7.3 °F 6.6 °F 1002.6 in SW 12.9 mph 32.2 mph 95 % 1.3 in
19:02 7.3 °F 6.6 °F 1002.3 in SW 20.9 mph 30.6 mph 95 % 1.0 in
19:12 7.4 °F 6.7 °F 1001.9 in SW 19.3 mph 35.4 mph 95 % 0.8 in
19:17 7.5 °F 6.9 °F 1001.6 in SSW 20.9 mph 35.4 mph 96 % 0.5 in
19:22 7.7 °F 6.9 °F 1001.6 in SSW 29.0 mph 35.4 mph 95 % 0.5 in
19:32 7.9 °F 7.1 °F 1001.2 in WSW 24.1 mph 40.2 mph 95 % 0.5 in
19:42 8.4 °F 7.6 °F 1000.9 in WSW 14.5 mph 40.2 mph 95 % 0.3 in
19:47 8.7 °F 7.8 °F 1000.6 in SW 35.4 mph 41.8 mph 94 % 0.3 in
19:52 8.9 °F 7.8 °F 1000.6 in SW 35.4 mph 48.3 mph 93 % 0.3 in
19:57 9.1 °F 8.0 °F 1000.2 in WSW 51.5 mph 53.1 mph 93 % 0.3 in
20:02 9.5 °F 7.8 °F 1000.6 in WSW 35.4 mph 72.4 mph 89 % 0.5 in
20:07 9.7 °F 7.1 °F 1000.6 in West 22.5 mph 72.4 mph 84 % 0.5 in
20:17 10.0 °F 6.2 °F 1001.2 in SW 35.4 mph 70.8 mph 77 % 0.3 in
20:22 9.8 °F 5.6 °F 1001.2 in West 49.9 mph 70.8 mph 75 % 0.3 in
20:27 9.5 °F 5.7 °F 1001.2 in West 46.7 mph 70.8 mph 77 % 0.3 in
20:32 9.2 °F 5.2 °F 1001.6 in West 30.6 mph 70.8 mph 76 % 0.3 in
20:37 8.9 °F 5.1 °F 1001.9 in WNW 33.8 mph 70.8 mph 77 % 0.3 in
20:42 8.8 °F 5.0 °F 1001.9 in West 29.0 mph 61.1 mph 77 % 0.3 in
20:52 8.5 °F 4.5 °F 1002.3 in West 41.8 mph 57.9 mph 76 % 0.3 in
21:02 8.3 °F 4.7 °F 1002.3 in WSW 24.1 mph 56.3 mph 78 % 0.0 in
21:07 8.1 °F 4.7 °F 1002.6 in WNW 12.9 mph 59.5 mph 79 % 0.0 in
21:17 7.9 °F 4.7 °F 1002.9 in West 24.1 mph 49.9 mph 80 % 0.0 in
21:22 7.8 °F 4.7 °F 1002.9 in West 29.0 mph 49.9 mph 81 % 0.0 in
21:32 7.7 °F 4.3 °F 1002.9 in WNW 16.1 mph 54.7 mph 79 % 0.0 in
21:37 7.7 °F 4.3 °F 1003.3 in WSW 32.2 mph 57.9 mph 79 % 0.0 in
21:42 7.6 °F 4.2 °F 1002.9 in West 20.9 mph 57.9 mph 79 % 0.0 in
21:52 7.4 °F 4.0 °F 1003.3 in West 29.0 mph 61.1 mph 79 % 0.0 in
21:57 7.4 °F 4.0 °F 1003.6 in WSW 25.7 mph 61.1 mph 79 % 0.0 in
22:02 7.4 °F 3.8 °F 1003.6 in WNW 19.3 mph 56.3 mph 78 % 0.0 in
22:12 7.3 °F 3.7 °F 1003.9 in West 25.7 mph 49.9 mph 78 % 0.0 in
22:17 7.2 °F 3.8 °F 1003.9 in West 30.6 mph 49.9 mph 79 % 0.0 in
22:22 7.1 °F 3.9 °F 1003.9 in South 20.9 mph 49.9 mph 80 % 0.0 in
22:32 7.1 °F 3.9 °F 1004.6 in West 11.3 mph 51.5 mph 80 % 0.0 in
22:37 6.9 °F 3.7 °F 1004.6 in WSW 27.4 mph 51.5 mph 80 % 0.0 in
22:42 6.9 °F 3.3 °F 1004.3 in West 40.2 mph 51.5 mph 78 % 0.0 in
22:52 6.8 °F 3.1 °F 1004.6 in West 43.4 mph 59.5 mph 77 % 0.0 in
22:57 6.7 °F 3.0 °F 1005.0 in WNW 20.9 mph 59.5 mph 77 % 0.0 in
23:02 6.6 °F 3.2 °F 1005.0 in WSW 16.1 mph 59.5 mph 79 % 0.0 in
23:12 6.4 °F 2.1 °F 1005.3 in West 27.4 mph 43.4 mph 74 % 0.0 in
23:17 6.4 °F 2.1 °F 1005.3 in West 20.9 mph 49.9 mph 74 % 0.0 in
23:22 6.4 °F 2.1 °F 1005.3 in WSW 25.7 mph 49.9 mph 74 % 0.0 in
23:27 6.4 °F 1.9 °F 1005.3 in West 20.9 mph 49.9 mph 73 % 0.0 in
23:32 6.3 °F 1.6 °F 1005.6 in WSW 17.7 mph 66.0 mph 72 % 0.0 in
23:37 6.3 °F 1.8 °F 1005.6 in West 29.0 mph 66.0 mph 73 % 0.0 in
23:47 6.1 °F 2.6 °F 1006.0 in West 14.5 mph 43.4 mph 78 % 0.0 in
23:52 6.0 °F 2.3 °F 1006.0 in West 32.2 mph 41.8 mph 77 % 0.0 in
23:57 6.0 °F 1.9 °F 1006.0 in WNW 37.0 mph 51.5 mph 75 % 0.0 in
Meteo18
Compliments of Weather Underground - 4 mb

Script developed by  Jim McMurry - jmcmurry@mwt.net Adapted for the template by  Wim van der Kuil - Leuven-Template.eu

You find our weather info also at:

European Weather Network

Weather Underground

Equipment we use:

Weather-station
Davis Vue

Weather-program
Meteobridge

Weather-server
Raspberry PI 2 B+

Provider
1 and 1

Davis Vue

Meteobridge

Raspberry PI 2 B+

1 and 1